User: anonymous   Login
Location: Ferques
(50.8300°N, 1.7599°E)
Time: 11:27:56
(UTC+00:00)
Language:

CZ-4C R/B - Orbit

View from above orbital plane
View from above orbital plane
View from above satellite
View from above satellite

Ground track
Ground track

The orbit is defined by the following mean orbital elements,

1 36416U          26102.28728466 +.00000000 +00000-0 +85097-4 0 00000
2 36416  63.3863 222.9826 0693423   2.8772 357.5946 13.73043516    07
Epoch (UTC): 12 April 2026 06:53:41
Eccentricity: 0.0693423
inclination: 63.3863°
perigee height: 478 km
apogee height: 1499 km
right ascension of ascending node: 222.9826°
argument of perigee: 2.8772°
revolutions per day: 13.73043516
mean anomaly at epoch: 357.5946°

The dashed part of the orbit path shows where the satellite is in the earth's shadow,  

DLR